Location: Newark
(45.8667°N, 9.7333°E)
Time: 15:36:20
(UTC+00:00)

Transit 4A - Pass Details

Date: 24 January 2020
Orbit: 872 x 973 km, 66.8° (Epoch: 23 February)

Event Time Altitude Azimuth Distance (km) Brightness Sun altitude
Rises 09:31:09 0° 293° (WNW) 3,509 10.5 19.2°
Reaches altitude 10° 09:36:09 10° 330° (NNW) 2,549 9.7 19.7°
Maximum altitude 09:37:34 11° 344° (NNW) 2,487 9.6 19.8°
Drops below altitude 10° 09:38:58 10° 358° (N) 2,541 9.7 19.9°
Sets 09:43:56 0° 35° (NE) 3,472 10.6 20.3°
